CW5066 Weather Reports


Display with metric or nautical units.
time (UTC)temp
F
wind
direction
speed
MPH
gust
MPH
rain 1hr
in
rain 24hr
in
rain mn
in
humidity
%
barometer
mb
20260508045535 42 23 2.0 4.0 0.00 0.36 0.36 55 1021.0
20260508044535 42 0 4.0 8.0 0.00 0.36 0.36 55 1020.8
20260508043515 41 0 2.0 8.0 0.00 0.36 0.36 57 1020.3
20260508042515 40 315 1.0 3.0 0.00 0.36 0.36 62 1019.9
20260508041515 39 315 1.0 4.0 0.00 0.36 0.36 64 1019.8
20260508040515 39 315 1.0 2.0 0.00 0.36 0.36 67 1019.2
20260508035517 40 248 1.0 5.0 0.00 0.36 0.36 67 1019.1
20260508034515 39 315 3.0 9.0 0.00 0.36 0.36 67 1019.3
20260508033517 38 180 5.0 10.0 0.00 0.36 0.36 72 1019.1
20260508032517 37 180 1.0 4.0 0.00 0.36 0.36 77 1019.0
20260508031517 37 180 2.0 5.0 0.00 0.36 0.36 79 1018.8
20260508030557 37 0.0 2.0 0.00 0.36 0.36 78 1019.5
20260508025537 37 315 2.0 7.0 0.00 0.36 0.36 81 1019.7
20260508024517 37 0 3.0 5.0 0.00 0.36 0.36 80 1019.6
20260508023517 37 270 4.0 8.0 0.00 0.36 0.36 81 1019.6
20260508022517 37 293 1.0 3.0 0.00 0.36 0.36 81 1019.7
20260508021517 37 315 3.0 7.0 0.00 0.36 0.36 81 1019.8
20260508020517 38 0 2.0 8.0 0.00 0.36 0.36 79 1019.3
20260508015537 39 68 4.0 9.0 0.00 0.36 0.36 76 1019.7
20260508014517 40 0 4.0 10.0 0.00 0.36 0.36 71 1020.4
20260508013517 40 0 4.0 12.0 0.00 0.36 0.36 67 1019.2
20260508012517 41 0 2.0 10.0 0.00 0.36 0.36 65 1019.5
20260508011517 41 0 6.0 13.0 0.00 0.36 0.36 63 1019.4
20260508010517 42 0 5.0 12.0 0.00 0.36 0.36 60 1018.8
20260508005516 43 0 6.0 15.0 0.00 0.36 0.36 58 1019.8
20260508004537 45 0 6.0 15.0 0.00 0.36 0.36 50 1020.3
20260508003516 45 0 6.0 13.0 0.00 0.37 0.36 48 1019.9
20260508002516 45 0 3.0 10.0 0.00 0.37 0.36 47 1019.6
20260508001517 46 0 5.0 14.0 0.00 0.37 0.36 45 1020.3
20260508000517 48 0 6.0 14.0 0.00 0.37 0.36 45 1020.7
20260507235517 48 0 7.0 14.0 0.00 0.37 0.36 44 1020.8
20260507234517 48 0 10.0 21.0 0.00 0.38 0.36 42 1020.7
20260507233517 48 0 7.0 15.0 0.00 0.38 0.36 41 1021.2
20260507232516 48 0 4.0 10.0 0.00 0.39 0.36 41 1021.2
20260507231516 49 0 6.0 17.0 0.00 0.39 0.36 41 1021.3
20260507230516 49 0 7.0 16.0 0.00 0.39 0.36 41 1021.4
20260507225517 49 0 9.0 19.0 0.00 0.39 0.36 41 1021.2
20260507224516 49 0 5.0 13.0 0.00 0.40 0.36 39 1021.4
20260507223516 49 0 5.0 11.0 0.00 0.40 0.36 41 1020.8
20260507222536 49 0 4.0 10.0 0.00 0.40 0.36 41 1021.0
20260507221516 48 0 6.0 16.0 0.00 0.41 0.36 41 1021.1
20260507220516 48 0 8.0 18.0 0.00 0.42 0.36 43 1021.1
20260507215516 48 0 10.0 23.0 0.01 0.42 0.36 43 1021.6
20260507214517 48 0 7.0 18.0 0.01 0.42 0.36 42 1021.9
20260507213516 47 0 7.0 16.0 0.01 0.42 0.36 41 1022.0
20260507212516 47 0 7.0 12.0 0.02 0.42 0.36 41 1022.0
20260507211516 48 68 7.0 14.0 0.03 0.42 0.36 42 1022.4
20260507210516 48 0 5.0 15.0 0.04 0.42 0.36 41 1022.5
20260507205516 47 0 8.0 17.0 0.05 0.41 0.35 43 1023.0
20260507204516 46 0 10.0 19.0 0.07 0.41 0.35 43 1022.3
20260507203516 47 0 8.0 18.0 0.10 0.41 0.35 43 1022.6
20260507202556 47 0 7.0 14.0 0.12 0.40 0.34 43 1022.8
20260507201516 45 0 7.0 21.0 0.13 0.39 0.33 46 1022.1
20260507200516 45 0 10.0 18.0 0.15 0.38 0.32 45 1022.2
20260507195516 46 0 9.0 24.0 0.17 0.36 0.30 45 1022.3
20260507194516 45 0 9.0 17.0 0.17 0.34 0.28 46 1022.3
20260507193536 45 0 12.0 27.0 0.16 0.31 0.25 49 1022.2
20260507192516 45 0 10.0 24.0 0.16 0.28 0.22 49 1021.8
20260507191516 45 0 12.0 24.0 0.17 0.26 0.20 49 1021.6
20260507190536 44 0 7.0 15.0 0.16 0.23 0.17 48 1021.4
20260507185516 44 0 9.0 16.0 0.12 0.19 0.13 51 1021.4
20260507184516 43 0 13.0 26.0 0.10 0.17 0.11 50 1021.5
20260507183516 43 0 13.0 23.0 0.09 0.15 0.09 51 1021.6
20260507182516 43 0 15.0 29.0 0.06 0.13 0.06 50 1021.9
20260507181515 44 0 9.0 18.0 0.03 0.10 0.03 51 1022.3
20260507180515 43 0 10.0 20.0 0.01 0.08 0.01 51 1021.8
20260507175516 42 0 16.0 34.0 0.01 0.08 0.01 51 1021.7
20260507174516 42 0 16.0 28.0 0.01 0.08 0.01 51 1021.6
20260507173515 41 0 15.0 27.0 0.00 0.07 0.00 52 1021.8
20260507172535 40 0 12.0 25.0 0.00 0.07 0.00 55 1021.2
20260507171515 40 0 13.0 24.0 0.00 0.07 0.00 56 1021.3
20260507170516 40 0 11.0 28.0 0.00 0.07 0.00 56 1021.4
20260507165516 39 0 8.0 25.0 0.00 0.07 0.00 59 1021.0
20260507164536 38 158 3.0 6.0 0.00 0.07 0.00 60 1021.5
20260507163515 38 293 1.0 5.0 0.00 0.07 0.00 63 1021.6
20260507162515 38 248 1.0 6.0 0.00 0.07 0.00 62 1021.9
20260507161515 37 293 4.0 7.0 0.00 0.07 0.00 61 1021.4
20260507160515 37 225 2.0 8.0 0.00 0.07 0.00 62 1021.5
20260507155516 37 248 1.0 5.0 0.00 0.07 0.00 62 1022.3
20260507154535 36 270 2.0 6.0 0.00 0.07 0.00 61 1021.9
20260507153518 36 0 4.0 8.0 0.00 0.07 0.00 62 1022.2
20260507152518 37 0 3.0 7.0 0.00 0.07 0.00 61 1023.2
20260507151517 36 0 3.0 6.0 0.00 0.07 0.00 60 1022.7
20260507150537 36 0 7.0 13.0 0.00 0.07 0.00 59 1022.8
20260507145517 36 0 10.0 16.0 0.00 0.07 0.00 61 1023.0
20260507144517 37 0 4.0 10.0 0.00 0.07 0.00 60 1023.0
20260507143537 36 0 10.0 16.0 0.00 0.07 0.00 60 1022.8
20260507142517 37 0 10.0 16.0 0.00 0.07 0.00 61 1022.9
20260507141517 37 0 12.0 20.0 0.00 0.07 0.00 60 1023.0
20260507140517 37 0 8.0 17.0 0.00 0.07 0.00 61 1023.2
20260507135517 36 0 7.0 12.0 0.00 0.07 0.00 61 1024.1
20260507134537 36 0 9.0 15.0 0.00 0.07 0.00 62 1023.5
20260507133517 35 0 11.0 20.0 0.00 0.07 0.00 62 1023.4
20260507132517 34 0 10.0 19.0 0.00 0.07 0.00 64 1024.1
20260507131517 33 0 9.0 17.0 0.00 0.07 0.00 64 1023.6
20260507130517 32 0 5.0 10.0 0.00 0.07 0.00 65 1023.7
20260507125516 32 0 6.0 13.0 0.00 0.07 0.00 66 1023.6
20260507124517 31 0 8.0 14.0 0.00 0.07 0.00 65 1023.6
20260507123537 32 0 9.0 14.0 0.00 0.07 0.00 63 1023.5
20260507122517 32 0 5.0 10.0 0.00 0.07 0.00 63 1024.2
20260507121557 32 0 8.0 16.0 0.00 0.07 0.00 64 1024.1
20260507120517 31 0 6.0 11.0 0.00 0.07 0.00 64 1023.2
20260507115516 32 0 5.0 13.0 0.00 0.07 0.00 63 1023.5
20260507114517 32 0 6.0 11.0 0.00 0.07 0.00 63 1023.6
20260507113517 32 0 6.0 16.0 0.00 0.07 0.00 63 1023.7
20260507112517 32 0 5.0 10.0 0.00 0.07 0.00 61 1023.7
20260507111517 32 0 4.0 13.0 0.00 0.07 0.00 59 1023.7
20260507110516 32 113 4.0 12.0 0.00 0.07 0.00 60 1023.6
20260507105516 32 135 4.0 14.0 0.00 0.07 0.00 59 1023.8
20260507104516 32 113 5.0 14.0 0.00 0.07 0.00 58 1023.8
20260507103516 31 158 1.0 4.0 0.00 0.07 0.00 59 1023.4
20260507102537 30 180 1.0 5.0 0.00 0.07 0.00 62 1022.0
20260507101517 30 180 4.0 7.0 0.00 0.07 0.00 65 1021.9
20260507100516 30 180 2.0 6.0 0.00 0.07 0.00 63 1021.6
20260507095516 30 158 3.0 6.0 0.00 0.07 0.00 63 1021.5
20260507094516 30 135 3.0 8.0 0.00 0.07 0.00 63 1021.9
20260507093516 31 113 2.0 4.0 0.00 0.07 0.00 62 1022.2
20260507092536 31 158 3.0 10.0 0.00 0.07 0.00 61 1022.2
20260507091516 31 135 4.0 12.0 0.00 0.07 0.00 60 1022.2
20260507090516 31 45 5.0 11.0 0.00 0.07 0.00 59 1022.4
20260507085536 31 23 5.0 20.0 0.00 0.07 0.00 57 1022.3
20260507084516 31 45 2.0 7.0 0.00 0.07 0.00 56 1022.7
20260507083516 30 68 5.0 10.0 0.00 0.07 0.00 56 1022.6
20260507082536 31 23 3.0 6.0 0.00 0.07 0.00 55 1021.0
20260507081536 30 0 3.0 7.0 0.00 0.07 0.00 55 1021.2
20260507080516 30 0 4.0 10.0 0.00 0.07 0.00 54 1021.3
20260507075516 30 0 6.0 12.0 0.00 0.07 0.00 52 1021.9
20260507074516 30 0 12.0 19.0 0.00 0.07 0.00 52 1021.2
20260507073516 29 0 9.0 16.0 0.00 0.07 0.00 53 1021.1
20260507072516 28 0 5.0 10.0 0.00 0.07 0.00 54 1021.1
20260507071516 28 0 8.0 13.0 0.00 0.07 0.00 56 1021.1
20260507070516 28 0 12.0 25.0 0.00 0.07 0.00 56 1020.9
20260507065536 28 0 12.0 24.0 0.00 0.07 0.00 57 1021.0
20260507064516 27 0 10.0 19.0 0.00 0.07 0.00 59 1021.2
20260507063516 27 0 14.0 21.0 0.00 0.07 0.00 61 1021.1
20260507062516 27 0 11.0 28.0 0.00 0.07 0.00 61 1021.2
20260507061515 27 0 14.0 24.0 0.00 0.07 0.00 63 1021.2
20260507060515 27 0 7.0 18.0 0.00 0.07 0.00 62 1021.5
20260507055517 26 0 5.0 11.0 0.00 0.07 0.07 63 1020.2
20260507054536 26 0 6.0 14.0 0.00 0.07 0.07 63 1020.2
20260507053516 27 0 12.0 20.0 0.00 0.07 0.07 61 1020.6
20260507052516 27 0 13.0 22.0 0.00 0.07 0.07 63 1019.6
20260507051517 27 0 12.0 20.0 0.00 0.07 0.07 62 1020.4
20260507050516 26 0 12.0 20.0 0.00 0.07 0.07 65 1019.5